{"data":{"norad_id":53554,"intl_designator":"2022-101AD","name":"STARLINK-4506","alt_names":[],"object_type":"PAYLOAD","status":"ACTIVE","operator":null,"country":"US","launch_date":"2022-08-19","launch_site_code":"AFETR","launch_vehicle":null,"mission":null,"orbit_class":"UNKNOWN","rcs_meters":null,"size_class":null,"mass_kg":null,"dimensions":null,"purposes":["comms"],"wikipedia_slug":null,"has_3d_model":false,"image_url":null,"decayed_at":null,"tle_current":{"epoch":"2026-05-25T02:25:28.465824Z","epoch_age_seconds":76799,"freshness":"FRESH","line1":"1 53554U 22101AD  26145.10102391  .00000117  00000+0  25426-4 0  9994","line2":"2 53554  53.2143  81.1053 0001574  66.6736 293.4421 15.08840233207841","mean_motion":15.08840233,"eccentricity":0.0001574,"inclination_deg":53.2143,"raan_deg":81.1053,"arg_perigee_deg":66.6736,"mean_anomaly_deg":293.4421,"bstar":2.5426e-5,"rev_number":20784,"period_min":95.437539939989,"perigee_km":538.65380251528,"apogee_km":540.83155103753,"semimajor_km":6917.8796767764,"source":"CELESTRAK","updated_at":"2026-05-25T13:38:17.444910Z"}}}